Weather reports worldwide

Advertisment
Jersey Airport, United Kingdom (3895): temperature & dewpoint: 15.11.2017 13:00:00 - 21.11.2017 13:00:00 (GMT)Jersey Airport, United Kingdom (3895): wind speed & gusts: 15.11.2017 13:00:00 - 21.11.2017 13:00:00 (GMT)Jersey Airport, United Kingdom (3895): wind direction: 15.11.2017 13:00:00 - 21.11.2017 13:00:00 (GMT)Jersey Airport, United Kingdom (3895): reduced air pressure: 15.11.2017 13:00:00 - 21.11.2017 13:00:00 (GMT)Jersey Airport, United Kingdom (3895): visibility: 15.11.2017 13:00:00 - 21.11.2017 13:00:00 (GMT)Jersey Airport, United Kingdom (3895): sunshine duration: 15.11.2017 13:00:00 - 21.11.2017 13:00:00 (GMT)Jersey Airport, United Kingdom (3895): precipitation: 15.11.2017 13:00:00 - 21.11.2017 13:00:00 (GMT)
Date & Time tt [°C] td [°C] ff [km/h] ff [kn] fx [km/h] fx [kn] dd ppp [hPa] vv [km] sd [min] rr [mm]
21.11.2017 13:00:00 13,1 10,2 28 15 - - SSW 1014,2 10 0 0,0
21.11.2017 12:00:00 12,9 10,0 26 14 - - SSW 1014,8 10 0 0,0
21.11.2017 11:00:00 12,8 9,9 26 14 - - SW 1015,7 10 0 -
21.11.2017 10:00:00 12,5 9,3 28 15 - - SW 1016,0 10 0 0,0
21.11.2017 09:00:00 12,4 9,2 28 15 - - SW 1015,9 10 0 0,0
21.11.2017 08:00:00 12,2 9,5 22 12 - - SW 1015,8 10 0 0,0
21.11.2017 07:00:00 12,4 9,8 21 11 - - SW 1015,6 10 0 0,0
21.11.2017 06:00:00 12,3 9,7 21 11 - - SW 1015,6 10 0 0,0
21.11.2017 05:00:00 12,1 10,0 22 12 - - SW 1016,0 10 0 0,0
21.11.2017 04:00:00 12,0 9,9 21 11 - - SSW 1016,4 10 0 0,0
21.11.2017 03:00:00 11,9 9,6 24 13 - - SW 1016,7 10 0 0,0
21.11.2017 02:00:00 11,8 9,6 24 13 - - SW 1017,2 10 0 0,0
21.11.2017 01:00:00 11,8 9,0 29 16 - - SW 1017,6 10 0 0,0
21.11.2017 00:00:00 11,3 9,3 24 13 - - SW 1018,1 10 - 0,0
20.11.2017 23:00:00 11,0 9,5 31 17 - - WSW 1018,3 10 0 0,0
20.11.2017 22:00:00 11,3 9,9 29 16 - - WSW 1018,5 10 0 0,0
20.11.2017 21:00:00 11,0 9,4 26 14 - - WSW 1018,9 10 0 0,0
20.11.2017 20:00:00 11,1 9,2 28 15 - - WSW 1019,1 10 0 0,0
20.11.2017 19:00:00 11,3 9,2 34 18 - - WSW 1019,1 10 0 0,0
20.11.2017 18:00:00 11,7 9,2 28 15 - - WSW 1018,9 10 0 0,0
20.11.2017 17:00:00 11,2 9,4 15 8 - - SW 1019,1 10 0 0,0
20.11.2017 16:00:00 11,5 9,2 22 12 - - WSW 1019,0 10 18 0,0
20.11.2017 15:00:00 12,0 9,6 24 13 - - WSW 1019,3 10 12 0,0
20.11.2017 14:00:00 12,2 10,1 26 14 - - WSW 1019,7 10 18 0,0
20.11.2017 13:00:00 11,7 9,5 24 13 - - SW 1020,3 10 0 0,0
20.11.2017 12:00:00 11,6 9,7 28 15 - - SW 1020,9 10 0 0,0
20.11.2017 11:00:00 11,3 9,3 31 17 - - SW 1021,4 10 0 0,0
20.11.2017 10:00:00 11,5 9,4 35 19 48 26 WSW 1021,8 10 0 0,0
20.11.2017 09:00:00 11,2 9,0 35 19 - - WSW 1021,7 10 0 0,0
20.11.2017 08:00:00 11,0 8,9 31 17 46 25 WSW 1021,7 10 0 0,0
20.11.2017 07:00:00 10,9 8,9 34 18 - - WSW 1021,6 10 0 0,0
20.11.2017 06:00:00 10,7 8,2 28 15 - - WSW 1021,9 10 0 0,0
20.11.2017 05:00:00 10,6 9,1 29 16 - - WSW 1022,0 10 0 0,0
20.11.2017 04:00:00 10,3 8,5 28 15 - - WSW 1022,2 10 0 0,0
20.11.2017 03:00:00 11,0 10,2 22 12 - - WSW 1022,8 10 0 0,0
20.11.2017 02:00:00 11,1 10,6 26 14 - - SW 1022,8 10 0 -
20.11.2017 01:00:00 11,2 10,7 13 7 - - WSW 1023,1 10 0 0,0
20.11.2017 00:00:00 11,3 10,9 11 6 - - SW 1023,9 10 - 0,0
19.11.2017 23:00:00 11,3 10,8 11 6 - - S 1024,3 3,2 0 0,0
19.11.2017 22:00:00 11,1 8,9 13 7 - - S 1024,9 10 0 0,0
19.11.2017 21:00:00 10,2 8,3 9 5 - - SSE 1024,9 10 0 -
19.11.2017 20:00:00 10,0 7,7 8 4 - - S 1025,0 10 0 0,0
19.11.2017 19:00:00 9,9 7,3 8 4 - - S 1024,9 10 0 0,0
19.11.2017 18:00:00 9,7 7,1 9 5 - - SE 1025,0 10 0 0,0
19.11.2017 17:00:00 9,8 6,9 5 3 - - SSE 1025,0 10 0 0,0
19.11.2017 16:00:00 10,1 6,6 8 4 - - SE 1024,9 10 0 0,0
19.11.2017 15:00:00 10,8 6,7 4 2 - - - 1024,6 10 6 0,0
19.11.2017 14:00:00 11,0 6,1 5 3 - - NNE 1024,6 10 18 0,0
19.11.2017 13:00:00 11,3 6,0 4 2 - - - 1025,0 10 54 0,0
19.11.2017 12:00:00 10,5 6,0 8 4 - - ESE 1025,0 10 0 0,0
19.11.2017 11:00:00 10,2 7,0 9 5 - - E 1025,1 10 0 0,0
19.11.2017 10:00:00 10,0 7,5 9 5 - - E 1024,8 10 0 0,0
19.11.2017 09:00:00 9,7 8,5 9 5 - - E 1024,5 10 0 0,0
19.11.2017 08:00:00 9,6 8,9 11 6 - - ENE 1024,2 10 0 0,2
19.11.2017 07:00:00 9,9 9,5 13 7 - - NE 1023,5 7 0 0,4
19.11.2017 06:00:00 10,7 10,4 15 8 - - NNE 1022,7 5 0 2,0
19.11.2017 05:00:00 12,4 11,3 21 11 - - WNW 1022,4 10 0 0,0
19.11.2017 04:00:00 12,2 11,3 24 13 - - WNW 1022,4 4,5 0 0,6
19.11.2017 03:00:00 12,3 11,2 24 13 - - WNW 1022,7 10 0 0,0
19.11.2017 02:00:00 12,2 11,1 26 14 - - WNW 1022,9 10 0 -
19.11.2017 01:00:00 12,3 10,5 22 12 - - W 1023,0 10 0 0,0
19.11.2017 00:00:00 12,2 10,3 24 13 - - WNW 1023,5 10 - 0,0
18.11.2017 23:00:00 11,8 9,9 22 12 - - W 1023,5 10 0 0,0
18.11.2017 22:00:00 11,9 9,3 22 12 - - W 1024,0 10 0 0,0
18.11.2017 21:00:00 11,7 8,9 24 13 - - W 1024,1 10 0 0,0
18.11.2017 20:00:00 11,6 8,3 26 14 - - W 1024,3 10 0 0,0
18.11.2017 19:00:00 11,4 7,5 26 14 - - W 1024,5 10 0 0,0
18.11.2017 18:00:00 11,2 7,0 24 13 - - W 1024,7 10 0 0,0
18.11.2017 17:00:00 11,2 7,4 22 12 - - W 1025,0 10 0 0,0
18.11.2017 16:00:00 11,2 7,8 24 13 - - W 1025,0 10 0 0,0
18.11.2017 15:00:00 11,3 7,7 21 11 - - W 1025,2 10 0 0,0
18.11.2017 14:00:00 11,6 7,7 21 11 - - W 1025,5 10 6 0,0
18.11.2017 13:00:00 11,3 6,3 21 11 - - WSW 1026,0 10 36 0,0
18.11.2017 12:00:00 11,1 5,4 13 7 - - WSW 1026,8 10 6 0,0
18.11.2017 11:00:00 10,9 4,6 11 6 - - WSW 1027,2 10 54 0,0
18.11.2017 10:00:00 10,5 4,4 5 3 - - SW 1027,1 10 54 0,0
18.11.2017 09:00:00 9,9 6,3 2 1 - - NW 1027,5 10 48 0,0
18.11.2017 08:00:00 7,4 2,9 5 3 - - NNW 1027,2 10 6 0,0
18.11.2017 07:00:00 6,4 2,3 8 4 - - NNW 1027,0 10 0 0,0
18.11.2017 06:00:00 6,6 2,5 5 3 - - NW 1026,8 10 0 0,0
18.11.2017 05:00:00 6,1 3,0 4 2 - - - 1026,9 10 0 0,0
18.11.2017 04:00:00 6,4 3,2 5 3 - - N 1027,2 10 0 0,0
18.11.2017 03:00:00 6,0 3,6 9 5 - - N 1027,6 10 0 0,0
18.11.2017 02:00:00 6,8 5,2 5 3 - - NNW 1027,9 10 0 0,0
18.11.2017 01:00:00 7,3 4,9 8 4 - - E 1028,1 10 0 0,0
18.11.2017 00:00:00 6,9 5,4 4 2 - - SSE 1027,9 10 - -
17.11.2017 23:00:00 7,0 4,8 5 3 - - E 1028,3 10 0 0,0
17.11.2017 22:00:00 7,1 5,1 9 5 - - E 1028,4 10 0 0,0
17.11.2017 21:00:00 7,4 5,6 8 4 - - E 1028,5 10 0 0,0
17.11.2017 20:00:00 8,1 6,0 9 5 - - ENE 1028,7 10 0 0,0
17.11.2017 19:00:00 9,0 6,6 13 7 - - NE 1028,7 10 0 0,0
17.11.2017 18:00:00 8,9 5,9 11 6 - - ENE 1028,3 10 0 0,0
17.11.2017 17:00:00 9,2 5,6 11 6 - - NE 1027,9 10 0 0,0
17.11.2017 16:00:00 10,3 6,1 13 7 - - NNE 1027,7 10 54 0,0
17.11.2017 15:00:00 11,7 6,9 13 7 - - NNE 1027,8 10 12 0,0
17.11.2017 14:00:00 11,9 7,1 15 8 - - NNE 1028,1 10 18 0,0
17.11.2017 13:00:00 12,6 8,3 13 7 - - NE 1028,4 10 30 0,0
17.11.2017 12:00:00 11,9 7,8 15 8 - - E 1028,5 10 54 0,0
17.11.2017 11:00:00 11,9 8,4 15 8 - - ENE 1028,6 10 18 0,0
17.11.2017 10:00:00 11,4 8,6 22 12 - - E 1028,4 10 36 0,0
17.11.2017 09:00:00 11,2 8,6 16 9 - - ENE 1028,5 10 30 0,0
17.11.2017 08:00:00 10,1 8,4 15 8 - - ENE 1028,3 10 0 0,0
17.11.2017 07:00:00 10,1 8,4 11 6 - - ENE 1027,8 10 0 0,0
17.11.2017 06:00:00 10,3 8,7 16 9 - - ENE 1027,5 10 0 0,0
17.11.2017 05:00:00 10,7 9,5 15 8 - - ENE 1027,3 10 0 0,0
17.11.2017 04:00:00 10,6 10,0 9 5 - - NE 1027,2 10 0 0,0
17.11.2017 03:00:00 10,5 9,0 5 3 - - ENE 1027,0 10 0 0,0
17.11.2017 02:00:00 10,3 9,0 4 2 - - ESE 1026,7 10 0 0,0
17.11.2017 01:00:00 10,1 8,9 4 2 - - E 1026,6 10 0 0,0
17.11.2017 00:00:00 9,6 9,2 4 2 - - E 1026,6 10 - 0,0
16.11.2017 23:00:00 9,0 8,3 5 3 - - NE 1026,5 10 0 0,0
16.11.2017 22:00:00 8,8 7,6 4 2 - - NNE 1026,3 10 0 0,0
16.11.2017 21:00:00 9,5 7,9 4 2 - - N 1026,1 10 0 0,0
16.11.2017 20:00:00 9,7 7,8 4 2 - - N 1025,9 10 0 0,0
16.11.2017 19:00:00 10,2 8,0 5 3 - - NNW 1025,6 10 0 -
16.11.2017 18:00:00 10,2 9,4 4 2 - - W 1025,3 10 0 0,0
16.11.2017 17:00:00 9,7 8,3 9 5 - - SW 1024,9 10 0 -
16.11.2017 16:00:00 10,6 8,5 9 5 - - WSW 1024,6 10 6 0,0
16.11.2017 15:00:00 11,2 8,6 9 5 - - SW 1024,2 10 6 0,0
16.11.2017 14:00:00 11,3 8,9 13 7 - - WSW 1024,2 10 0 0,0
16.11.2017 13:00:00 11,7 8,4 11 6 - - SW 1024,1 10 18 0,0
16.11.2017 12:00:00 11,3 8,7 11 6 - - SW 1024,4 10 0 0,0
16.11.2017 11:00:00 10,8 8,6 11 6 - - SSW 1024,5 10 0 0,0
16.11.2017 10:00:00 10,7 7,9 13 7 - - SSW 1024,6 10 0 0,0
16.11.2017 09:00:00 10,3 7,8 9 5 - - SSW 1024,4 10 0 0,0
16.11.2017 08:00:00 9,9 7,7 15 8 - - SSW 1024,0 10 0 0,0
16.11.2017 07:00:00 10,0 7,2 13 7 - - SSW 1023,3 10 0 0,0
16.11.2017 06:00:00 10,1 7,0 11 6 - - SSW 1023,0 10 0 0,0
16.11.2017 05:00:00 10,2 6,8 8 4 - - S 1022,9 10 0 0,0
16.11.2017 04:00:00 9,1 6,4 4 2 - - SSW 1023,3 10 0 0,0
16.11.2017 03:00:00 9,3 6,4 8 4 - - SW 1023,8 10 0 0,0
16.11.2017 02:00:00 9,3 6,2 5 3 - - S 1023,8 10 0 0,0
16.11.2017 01:00:00 10,0 6,4 9 5 - - SSE 1024,0 10 0 0,0
16.11.2017 00:00:00 10,6 6,6 9 5 - - S 1024,4 10 - 0,0
15.11.2017 23:00:00 10,4 6,7 11 6 - - S 1024,2 10 0 0,0
15.11.2017 22:00:00 10,1 6,8 8 4 - - SSE 1024,4 10 0 0,0
15.11.2017 21:00:00 9,7 6,9 8 4 - - SSE 1024,6 10 0 0,0
15.11.2017 20:00:00 9,8 7,4 8 4 - - SE 1024,5 10 0 0,0
15.11.2017 19:00:00 9,7 7,1 4 2 - - - 1024,9 10 0 0,0
15.11.2017 18:00:00 9,7 6,7 4 2 - - - 1024,8 10 0 0,0
15.11.2017 17:00:00 10,1 7,3 5 3 - - SSE 1024,9 10 0 0,0
15.11.2017 16:00:00 10,9 7,3 8 4 - - S 1025,1 10 6 0,0
15.11.2017 15:00:00 11,6 7,8 8 4 - - SSW 1025,4 10 0 0,0
15.11.2017 14:00:00 12,1 8,2 11 6 - - WSW 1025,5 10 30 0,0
15.11.2017 13:00:00 12,6 8,4 13 7 - - WSW 1025,4 10 12 0,0

tt = temperature
td = dewpoint
ff = wind speed
fx = gusts
dd = wind direction
ppp = reduced air pressure
vv = visibility
sd = sunshine duration
rr = precipitation

Next stations